Location: Aulus
(42.7909°N, 1.3399°E)
Time: 06:58:01
(UTC+00:00)

Cosmos 1315 Rocket - Pass Details

Date: 19 May 2025
Orbit: 498 x 525 km, 81.2° (Epoch: 18 June)

Event Time Altitude Azimuth Distance (km) Brightness Sun altitude
Exits shadow 20:54:55 22° 99° (E) 1,180 4.1 -15.3°
Maximum altitude 20:55:15 22° 91° (E) 1,171 4.1 -15.3°
Drops below altitude 10° 20:58:19 10° 39° (NE) 1,773 5.5 -15.7°
Sets 21:00:47 0° 24° (NNE) 2,665 6.7 -16.0°
